CZ-6A DEB, 54389

Orbit data source: Space-Track

CZ-6A DEB, 54389 is space debris in SSO originally from a launch on Fri, 11 Nov 2022 UTC launched from the Taiyaun Space Center, China (TSC). Debris objects in space refer to the collection of defunct objects orbiting the Earth. Examples of debris include non-operational satellites, rocket bodies, and fragments generated from explosions, collisions, or faulty payload assembly.

Loading next visibility...
Identifier
54389, 2022-151DM
Orbit
SSO
Country
Flag of CNCN / PRC
Related business
Manufacturer
SAST
Mission
Spacecraft
Bus & Motor
Unknown
Mass
Unknown
Launch date (UTC)
2022-11-11 (4 years ago)
Launch vehicle
Unknown
Launch site
Taiyaun Space Center, China (TSC)
Object type
Payload
Rocket body
Debris
Shape & HBR
Unknown shape, 0.2 m
Radar Cross Section
Medium (>0.1 m² and <1 m²)

Expand to show TLE details & history
Last TLE update: 2 days ago

TLE from 2 days ago
0 CZ-6A DEB
1 54389U 22151DM  26171.36194714  .00000107  00000-0  10406-3 0  9994
2 54389  98.9197 140.8268 0129316  75.9864 285.5636 13.94194944182716
Epoch: 2026-06-20T08:41Z
TLE epoch observation values (Epoch: 2026-06-20T08:41:12.232Z)
Latitude
-0.00004°
Longitude
101.94818°
Altitude
892.671 km
Speed
7.418 km/s
True Right ascension
09h 23m 18s
True Declination
0° 00' 00"
Sunlit
Object was in daylight at epoch
Visualization orbit readout
Latitude
Unknown
Longitude
Unknown
Altitude
Unknown
Speed
Unknown
Apparent Right ascension
Unknown
Apparent Declination
Unknown
Sunlit
N/A
Visualization observer readout
Local Sidereal Time
21:32:04
Azimuth
Unknown
Elevation
Unknown
Doppler factor
Unknown
Orbital elements
Apogee altitude
1,005.432 km
Perigee altitude
816.907 km
Semi-major axis
7,289.306 km
Eccentricity
0.01293
Inclination
98.9197°
RAAN
140.8268°
Arg. of periapsis
75.9864°
True anomaly
284.13002°
Mean anomaly
285.5636°
Eccentric anomaly
284.84741°
Mean motion
3.4875 °/min
Orbital period
103.23 mins
BSTAR
0.00010406
Loading maneuver chart data...
Computing Atmospheric mass density...
Loading historical data...
Loading historical data...
Loading historical data...
Loading historical data...
Loading historical data...
Loading historical data...
Loading historical data...

Documentation

Showing up to 5 results
|